Current Version              Previous Version:    01  02  03  04  05  06  07  08  09  10  11  12  13  14  15  16  17  18  19  20  21  22  23  24  25  26  27  28  29  30  
   31  32  33  34  35  36  37  38  39  40  41  42  43  44  45  46  47  48  49  50  51  52  53  54  55  56  57  58  59  60  

[Printable]
509
ASUS44 KFWD 012301
RWRTX
NORTH TEXAS HOURLY WEATHER ROUNDUP
NATIONAL WEATHER SERVICE FORT WORTH TX
600 PM CDT MON SEP 01 2014

NOTE: "FAIR" INDICATES FEW OR NO CLOUDS BELOW 12,000 FEET WITH NO
SIGNIFICANT WEATHER AND/OR OBSTRUCTIONS TO VISIBILITY.

TXZ118-119-020000-
DALLAS/FORT WORTH METROPLEX

CITY           SKY/WX    TMP DP  RH WIND       PRES   REMARKS
DFW AIRPORT    MOSUNNY   95  69  42 S17       29.83S HX 100
DALLAS LOVE    MOSUNNY   95  69  42 S15G24    29.83F HX 100
FTW MEACHAM    MOSUNNY   98  67  36 S16G23    29.81F HX 102
DAL-EXECUTIVE  MOSUNNY   96  68  39 SE18G24   29.84F HX 101
FTW-ALLIANCE   MOSUNNY   95  66  38 S21G29    29.81F HX  98
FTW-NAS-JRB    MOSUNNY   99  63  30 S18G26    29.86S HX 101
ARLINGTON      SUNNY     95  66  38 SE14      29.83F HX  98
GRAND PRAIRIE  SUNNY     95  64  36 SE14G20   29.85S HX  97
ADDISON        MOSUNNY   95  64  36 SE20      29.85  HX  97
MESQUITE       SUNNY     93  64  38 SE14G21   29.85F HX  95
LANCASTER      SUNNY     94  66  39 S12       29.85F HX  97
$$

TXZ091>094-102>105-117-120-121-131>134-020000-
NORTH CENTRAL TEXAS

CITY           SKY/WX    TMP DP  RH WIND       PRES   REMARKS
SHRMAN/DENISON MOSUNNY   94  66  39 S17       29.86S HX  97
GAINESVILLE    SUNNY     91  70  48 SE18      29.86S HX  96
BOWIE          SUNNY     93  69  44 SE15G22   29.83S HX  98
BRIDGEPORT     MOSUNNY   96  62  32 S9G20     29.84S HX  96
DECATUR        SUNNY     94  64  37 SE14      29.84S HX  95
DENTON         MOSUNNY   96  67  38 S23       29.83S HX 100
MCKINNEY       SUNNY     93  68  43 SE18      29.84F HX  97
GREENVILLE     SUNNY     93  64  38 SE12      29.87S HX  95
ROCKWALL       SUNNY     93  70  46 SE14G21   29.84F HX  98
TERRELL        SUNNY     95  67  39 S17       29.86F HX  99
WAXAHACHIE     MOSUNNY   94  65  37 SE13G18   29.86F HX  96
CLEBURNE       MOSUNNY   95  66  38 S16       29.85F HX  98
$$

TXZ083>090-098>101-113>116-127>130-139>142-154-155-020000-
WESTERN NORTH TEXAS

CITY           SKY/WX    TMP DP  RH WIND       PRES   REMARKS
WICHITA FALLS  SUNNY    100  62  28 S20G29    29.75F HX 101
WF-KICKAPOO    SUNNY    101  57  23 S14G20    29.78S HX 100
VERNON         SUNNY    102  62  26 S18G25    29.76S HX 104
ABILENE        SUNNY    100  56  23 S16       29.82S HX  99
ABILENE-DYESS  SUNNY    100  63  29 S18G25    29.80F HX 101
BRECKENRIDGE   SUNNY     99  57  25 S16G23    29.81S HX  98
MINERAL WELLS  MOSUNNY   96  66  37 S10G23    29.81S HX  99
STEPHENVILLE   SUNNY     95  63  34 SE14G22   29.87S HX  96
COMANCHE         N/A     97  60  28 S14G21    29.84F HX  97
BROWNWOOD      SUNNY     97  59  28 S12       29.83F HX  96
COLEMAN        SUNNY     98  56  24 SE15G22   29.84F HX  96
BRADY          SUNNY     97  63  32 SE13      29.86S HX  98
$$

TXZ143>147-156>162-174-175-020000-
CENTRAL TEXAS

CITY           SKY/WX    TMP DP  RH WIND       PRES   REMARKS
WACO           MOSUNNY   97  67  37 S15       29.84S HX 101
WACO-TSTC      MOSUNNY   95  64  36 SE14      29.85S HX  97
WACO-MCGREGOR  MOSUNNY   97  64  34 S17G23    29.84S HX  99
HILLSBORO      MOSUNNY   96  62  33 S14       29.85S HX  97
CORSICANA      MOSUNNY   94  67  41 SE16G22   29.87F HX  97
MEXIA          SUNNY     92  68  45 SE10G16   29.86S HX  97
HEARNE           N/A     96  68  39 SE8       29.85F HX 101
CAMERON        MOSUNNY   96  68  39 S14       29.85S HX 101
TEMPLE         MOSUNNY   99  64  32 S13G22    29.85S HX 101
KILLEEN        MOSUNNY   93  64  38 SE17G23   29.85S HX  95
KILLEEN-SKYLRK MOSUNNY   95  66  38 SE12      29.85S HX  98
FORT HOOD      MOSUNNY   96  65  35 SE9G23    29.85S HX  98
HAMILTON       SUNNY     96  62  32 S10G24    29.87S HX  97
LAMPASAS       MOSUNNY   98  67  36 S8G16     29.85S HX 103
$$

TXZ095>097-106>112-122>126-135>138-148>153-164>167-020000-
EAST TEXAS

CITY           SKY/WX    TMP DP  RH WIND       PRES   REMARKS
PARIS          MOSUNNY   91  66  43 S15       29.89S HX  94
SULPHUR SPRNGS SUNNY     93  63  36 S10       29.89F HX  94
MOUNT PLEASANT SUNNY     93  64  37 S12       29.89F HX  95
MINEOLA        SUNNY     93  66  40 S8        29.90S HX  96
TYLER          SUNNY     94  62  34 S12       29.89S HX  94
LONGVIEW       MOSUNNY   94  69  44 SE13      29.89S HX  99
MARSHALL       SUNNY     94  73  49 S9        29.92S HX 103
ATHENS         SUNNY     91  66  43 S8        29.87S HX  94
PALESTINE      SUNNY     94  67  42 SE6       29.89S HX  97
JACKSONVILLE   MOSUNNY   92  69  46 SE7       29.93R HX  97
HENDERSON      MOSUNNY   94  68  43 S9        29.90S HX  98
NACOGDOCHES    MOSUNNY   90  73  58 SE14      29.91S HX  98
LUFKIN         MOSUNNY   92  74  55 SE12      29.91R HX 101
$$

SUPPLEMENTAL OBSERVATIONS (CENTRAL)

CITY           SKY/WX    TMP DP  RH WIND       PRES   REMARKS
$$

SUPPLEMENTAL OBSERVATIONS (WEST)

CITY           SKY/WX    TMP DP  RH WIND       PRES   REMARKS
$$

SUPPLEMENTAL OBSERVATIONS (EAST)

CITY           SKY/WX    TMP DP  RH WIND       PRES   REMARKS
$$

SUPPLEMENTAL OBSERVATIONS ARE A COLLECTION OF AUTOMATED INSTRUMENTS
THAT ARE MAINTAINED BY A VARIETY OF FEDERAL AND STATE AGENCIES.
CERTAIN ELEMENTS...SUCH AS HUMIDITY VALUES AND SUSTAINED WIND
SPEEDS...MAY BE APPROXIMATED.